Regional Weather Roundup
Issued by NWS

Home | Current Version | Previous Version | Graphics & Text | Print | Product List | Glossary On
Versions: 1 2 3 4 5 6 7 8 9 10 11 12 13 14 15 16 17 18 19 20 21 22 23 24 25 26 27 28 29 30 31 32 33 34 35 36 37 38 39 40 41 42 43 44 45 46 47 48 49 50
000
ASUS43 KIND 221200
RWRIN

WEATHER ROUNDUP FOR INDIANA
NATIONAL WEATHER SERVICE INDIANAPOLIS IN
800 AM EDT FRI SEP 22 2017

NOTE: "FAIR" INDICATES FEW OR NO CLOUDS BELOW 12,000 FEET WITH NO
SIGNIFICANT WEATHER AND/OR OBSTRUCTIONS TO VISIBILITY.

* - STATION DOES NOT REPORT WEATHER SUCH AS PRECIPITATION OR FOG.

+ - STATION NOT QUALITY CONTROLLED BY THE NATIONAL WEATHER SERVICE.
    USE DATA WITH CAUTION...ESPECIALLY DEWPOINT AND RELATIVE
    HUMIDITY OBSERVATIONS.

INZ001>003-010>013-019-020-221300-
NORTHWEST INDIANA

CITY           SKY/WX    TMP DP  RH WIND       PRES   REMARKS
GARY /AIRPORT/ PTCLDY    70  66  88 CALM      30.08R
MICHIGAN CITY+ CLEAR     66  66 100 CALM      30.10R FOG
MONTICELLO +   CLEAR     67  65  95 CALM      30.10R
6HR MIN TEMP:  66; 6HR MAX TEMP:  70;

RENSSELAER +   CLEAR     68  63  83 CALM      30.10R
VALPARAISO     FOG       67  66  97 CALM      30.10R VSB 1/2

$$

LMZ046-743>745-221300-
SOUTHERN LAKE MICHIGAN

STATION/POSITION TIME  TEMP    WIND        PRES    WAVE
                       AIR SEA DIR/SP/G            HT
                 (UTC) (F)     (DEG/KT/KT) (MB)    (FT)
BURNS HARBOR     1140   74     180/  7/ 10 1019.0R
MICHIGAN CITY    1130   74     150/  7/  9   N/A
5NW MICH CITY    1150   72 70  180/  4/  6   N/A     0

$$

INZ004-005-014>016-021>024-221300-
NORTH CENTRAL INDIANA

CITY           SKY/WX    TMP DP  RH WIND       PRES   REMARKS
ELKHART        CLEAR     70  68  94 CALM      30.11R
GOSHEN         CLEAR     66  63  90 CALM      30.11R FOG
6HR MIN TEMP:  65; 6HR MAX TEMP:  73;

PERU/GRISSOM   PTCLDY    68  68 100 SE3       30.11R
6HR MIN TEMP:  68; 6HR MAX TEMP:  72;

SOUTH BEND     CLEAR     66  66 100 CALM      30.10R FOG
6HR MIN TEMP:  66; 6HR MAX TEMP:  74;


$$

INZ006>009-017-018-025>027-221300-
NORTHEAST INDIANA

CITY           SKY/WX    TMP DP  RH WIND       PRES   REMARKS
FORT WAYNE     PTCLDY    66  64  93 CALM      30.12R
6HR MIN TEMP:  65; 6HR MAX TEMP:  70;

KENDALLVILLE + FOG       67  67 100 CALM      30.13R VSB<1/4

$$

INZ028-029-035-036-043>045-051>053-221300-
WEST CENTRAL INDIANA

CITY           SKY/WX    TMP DP  RH WIND       PRES   REMARKS
GREENCASTLE +  CLEAR     64  64 100 CALM      30.11S FOG
LAFAYETTE      CLEAR     66  66 100 CALM      30.10R FOG
6HR MIN TEMP:  66; 6HR MAX TEMP:  70;

TERRE HAUTE    FOG       66  65  96 CALM      30.09S VSB 3/4
6HR MIN TEMP:  66; 6HR MAX TEMP:  72;


$$

INZ030>032-037>040-046>048-054>057-064-065-221300-
CENTRAL INDIANA

CITY           SKY/WX    TMP DP  RH WIND       PRES   REMARKS
COLUMBUS       CLEAR     66  64  94 CALM      30.12R FOG
INDIANAPOLIS   PTCLDY    72  69  90 CALM      30.11R
6HR MIN TEMP:  71; 6HR MAX TEMP:  76;

-EAGLE CREEK   CLEAR     70  68  93 CALM      30.10R FOG
6HR MIN TEMP:  69; 6HR MAX TEMP:  73;

KOKOMO +       CLEAR     66  65  96 CALM      30.12R FOG
6HR MIN TEMP:  65; 6HR MAX TEMP:  69;

MT COMFORT *+  CLEAR     63  63 100 CALM      30.12R
SHELBYVILLE    PTCLDY    68  64  87 SE3       30.11R
6HR MIN TEMP:  67; 6HR MAX TEMP:  70;


$$

INZ033-034-041-042-049-050-058-059-221300-
EAST CENTRAL INDIANA

CITY           SKY/WX    TMP DP  RH WIND       PRES   REMARKS
MUNCIE         CLEAR     67  65  93 CALM      30.12R FOG
6HR MIN TEMP:  67; 6HR MAX TEMP:  72;

RICHMOND +     RAIN      64  64 100 CALM      30.14R

$$

INZ060-061-067>069-081>083-085>088-221300-
SOUTHWEST INDIANA

CITY           SKY/WX    TMP DP  RH WIND       PRES   REMARKS
EVANSVILLE     CLEAR     69  68  96 CALM      30.08S FOG
6HR MIN TEMP:  69; 6HR MAX TEMP:  72;

HUNTINGBURG +  FOG       67  67 100 CALM      30.09S VSB 1
6HR MIN TEMP:  67; 6HR MAX TEMP:  72;


$$

INZ062-063-066-070>080-084-089>092-221300-
SOUTH CENTRAL AND SOUTHEAST INDIANA

CITY           SKY/WX    TMP DP  RH WIND       PRES   REMARKS
BLOOMINGTON    CLEAR     65  62  90 CALM      30.11R
6HR MIN TEMP:  65; 6HR MAX TEMP:  68;

MADISON *+       N/A     68  66  94 CALM      30.13S VSB 1/2
SEYMOUR +      MOCLDY    70  66  88 CALM      30.10S

$$




USA.gov is the U.S. government's official web portal to all federal, state and local government web resources and services.